Location: Boncourt
(49.6160°N, 3.9448°E)
Time: 00:39:57
(UTC+00:00)

Cosmos 841 Rocket - Pass Details

Date: 09 February 2023
Orbit: 746 x 770 km, 74.0° (Epoch: 01 April)

Event Time Altitude Azimuth Distance (km) Brightness Sun altitude
Rises 17:53:53 0° 333° (NNW) 3,256 7.0 -10.3°
Reaches altitude 10° 17:56:18 10° 330° (NNW) 2,324 6.3 -10.7°
Maximum altitude 18:01:29 60° 252° (WSW) 878 4.2 -11.5°
Drops below altitude 10° 18:06:36 10° 173° (S) 2,296 6.0 -12.4°
Sets 18:08:59 0° 170° (S) 3,214 6.7 -12.7°
